When you browse on this site, cookies collect data to enhance your experience and personalize the content and advertising you see.
Visit our Privacy Policy to learn more. By continuing to use the site, you agree to this use of cookies and data.
  • In Spain
  • List of Countries
  • For 7 days
  • Water Temperature
  • Satellite Maps
  • Weather Map
  • Weather Widgets
  • user-avatar
    Login

    Hourly Weather Gmyri

    Today, 24 May, Friday

    Time Temperature Precipitation Wind Pressure Humidity
    00:00 +15°C° 0 mm 1 mps 736 mmHg 92%
    01:00 +15°C° 0 mm 2 mps 736 mmHg 94%
    02:00 +14°C° 0 mm 1 mps 736 mmHg 95%
    03:00 +14°C° 0.5 mm 2 mps 736 mmHg 96%
    04:00 +15°C° 0.5 mm 2 mps 736 mmHg 96%
    05:00 +14°C° 0.5 mm 3 mps 736 mmHg 97%
    06:00 +16°C° 0.1 mm 3 mps 737 mmHg 94%
    07:00 +16°C° 0.1 mm 3 mps 737 mmHg 92%
    08:00 +16°C° 0 mm 3 mps 737 mmHg 90%
    09:00 +17°C° 0.2 mm 3 mps 737 mmHg 89%
    10:00 +17°C° 0.2 mm 4 mps 737 mmHg 89%
    11:00 +17°C° 0.2 mm 4 mps 737 mmHg 89%
    12:00 +17°C° 0 mm 4 mps 737 mmHg 87%
    13:00 +18°C° 0 mm 4 mps 737 mmHg 84%
    14:00 +19°C° 0 mm 4 mps 737 mmHg 82%
    15:00 +19°C° 0.5 mm 4 mps 737 mmHg 82%
    16:00 +19°C° 0.5 mm 4 mps 737 mmHg 83%
    17:00 +19°C° 0.5 mm 4 mps 737 mmHg 83%
    18:00 +18°C° 0.5 mm 4 mps 737 mmHg 87%
    19:00 +17°C° 0.5 mm 4 mps 737 mmHg 90%
    20:00 +17°C° 0.5 mm 4 mps 737 mmHg 94%
    21:00 +15°C° 0 mm 4 mps 737 mmHg 95%
    22:00 +14°C° 0 mm 4 mps 736 mmHg 96%
    23:00 +14°C° 0 mm 3 mps 736 mmHg 97%

    Tomorrow, 25 May, Saturday

    Time Temperature Precipitation Wind Pressure Humidity
    00:00 +14°C° 0.1 mm 3 mps 736 mmHg 97%
    01:00 +14°C° 0.1 mm 3 mps 736 mmHg 97%
    02:00 +14°C° 0.1 mm 3 mps 736 mmHg 97%
    03:00 +14°C° 1.5 mm 3 mps 736 mmHg 97%
    04:00 +14°C° 1.5 mm 3 mps 735 mmHg 97%
    05:00 +15°C° 1.5 mm 2 mps 735 mmHg 97%
    06:00 +16°C° 1.2 mm 2 mps 735 mmHg 96%
    07:00 +16°C° 1.2 mm 2 mps 735 mmHg 95%
    08:00 +17°C° 1.2 mm 2 mps 735 mmHg 93%
    09:00 +18°C° 0.4 mm 3 mps 735 mmHg 90%
    10:00 +19°C° 0.4 mm 3 mps 735 mmHg 86%
    11:00 +20°C° 0.4 mm 3 mps 735 mmHg 82%
    12:00 +20°C° 0.8 mm 3 mps 734 mmHg 81%
    13:00 +21°C° 0.8 mm 3 mps 734 mmHg 79%
    14:00 +21°C° 0.8 mm 3 mps 734 mmHg 77%
    15:00 +21°C° 0.5 mm 3 mps 734 mmHg 79%
    16:00 +20°C° 0.5 mm 3 mps 734 mmHg 81%
    17:00 +20°C° 0.5 mm 3 mps 733 mmHg 82%
    18:00 +19°C° 0.5 mm 3 mps 733 mmHg 85%
    19:00 +18°C° 0.5 mm 3 mps 733 mmHg 87%
    20:00 +16°C° 0.5 mm 3 mps 733 mmHg 90%
    21:00 +14°C° 0 mm 3 mps 733 mmHg 91%
    22:00 +14°C° 0 mm 3 mps 733 mmHg 92%
    23:00 +14°C° 0 mm 2 mps 734 mmHg 93%

    Day after tomorrow, 26 May, Sunday

    Time Temperature Precipitation Wind Pressure Humidity
    00:00 +13°C° 0 mm 2 mps 734 mmHg 94%
    01:00 +12°C° 0 mm 2 mps 734 mmHg 95%
    02:00 +12°C° 0 mm 2 mps 734 mmHg 95%
    03:00 +12°C° 0 mm 2 mps 734 mmHg 95%
    04:00 +12°C° 0 mm 2 mps 734 mmHg 95%
    05:00 +12°C° 0 mm 2 mps 735 mmHg 95%
    06:00 +12°C° 0 mm 3 mps 735 mmHg 91%
    07:00 +13°C° 0 mm 3 mps 735 mmHg 86%
    08:00 +14°C° 0 mm 3 mps 735 mmHg 81%
    09:00 +16°C° 0 mm 3 mps 735 mmHg 75%
    10:00 +17°C° 0 mm 3 mps 735 mmHg 68%
    11:00 +18°C° 0 mm 3 mps 735 mmHg 62%
    12:00 +18°C° 0 mm 3 mps 735 mmHg 62%
    13:00 +19°C° 0 mm 4 mps 735 mmHg 62%
    14:00 +19°C° 0 mm 4 mps 735 mmHg 62%
    15:00 +19°C° 0 mm 4 mps 735 mmHg 63%
    16:00 +18°C° 0 mm 4 mps 735 mmHg 65%
    17:00 +18°C° 0 mm 4 mps 735 mmHg 66%
    18:00 +17°C° 0 mm 4 mps 735 mmHg 71%
    19:00 +14°C° 0 mm 3 mps 735 mmHg 76%
    20:00 +13°C° 0 mm 3 mps 735 mmHg 81%
    21:00 +12°C° 0 mm 3 mps 735 mmHg 82%
    22:00 +12°C° 0 mm 3 mps 735 mmHg 83%
    23:00 +11°C° 0 mm 4 mps 735 mmHg 85%

    27 May, Monday

    Time Temperature Precipitation Wind Pressure Humidity
    00:00 +11°C° 0 mm 3 mps 735 mmHg 87%
    01:00 +11°C° 0 mm 3 mps 735 mmHg 90%
    02:00 +10°C° 0 mm 3 mps 735 mmHg 93%
    03:00 +10°C° 0 mm 3 mps 736 mmHg 93%
    04:00 +10°C° 0 mm 3 mps 736 mmHg 93%
    05:00 +10°C° 0 mm 3 mps 736 mmHg 93%
    06:00 +11°C° 0 mm 4 mps 737 mmHg 85%
    07:00 +12°C° 0 mm 4 mps 737 mmHg 78%
    08:00 +13°C° 0 mm 5 mps 738 mmHg 70%
    09:00 +14°C° 0 mm 5 mps 738 mmHg 69%
    10:00 +15°C° 0 mm 5 mps 738 mmHg 67%
    11:00 +16°C° 0 mm 5 mps 738 mmHg 66%
    12:00 +16°C° 0.1 mm 5 mps 738 mmHg 68%
    13:00 +17°C° 0.1 mm 4 mps 739 mmHg 70%
    14:00 +17°C° 0.1 mm 4 mps 739 mmHg 73%
    15:00 +18°C° 0 mm 4 mps 739 mmHg 72%
    16:00 +18°C° 0 mm 4 mps 739 mmHg 71%
    17:00 +19°C° 0 mm 4 mps 739 mmHg 71%
    18:00 +18°C° 0 mm 3 mps 739 mmHg 76%
    19:00 +17°C° 0 mm 3 mps 739 mmHg 81%
    20:00 +14°C° 0 mm 3 mps 739 mmHg 87%
    21:00 +14°C° 0 mm 3 mps 739 mmHg 87%
    22:00 +14°C° 0 mm 3 mps 739 mmHg 87%
    23:00 +13°C° 0 mm 4 mps 739 mmHg 87%

    28 May, Tuesday

    Time Temperature Precipitation Wind Pressure Humidity
    00:00 +13°C° 0 mm 3 mps 739 mmHg 87%
    01:00 +13°C° 0 mm 3 mps 739 mmHg 87%
    02:00 +13°C° 0 mm 3 mps 739 mmHg 88%
    03:00 +13°C° 0 mm 3 mps 739 mmHg 89%
    04:00 +14°C° 0 mm 3 mps 739 mmHg 90%
    05:00 +14°C° 0 mm 3 mps 739 mmHg 91%
    06:00 +16°C° 0 mm 3 mps 739 mmHg 89%
    07:00 +17°C° 0 mm 3 mps 739 mmHg 86%
    08:00 +19°C° 0 mm 3 mps 740 mmHg 84%
    09:00 +20°C° 0.1 mm 3 mps 740 mmHg 78%
    10:00 +22°C° 0.1 mm 3 mps 740 mmHg 73%
    11:00 +24°C° 0.1 mm 3 mps 740 mmHg 67%
    12:00 +23°C° 0.5 mm 4 mps 740 mmHg 69%
    13:00 +23°C° 0.5 mm 4 mps 740 mmHg 70%
    14:00 +25°C° 0.5 mm 5 mps 740 mmHg 71%
    15:00 +23°C° 0.6 mm 4 mps 739 mmHg 76%
    16:00 +22°C° 0.6 mm 3 mps 739 mmHg 81%
    17:00 +21°C° 0.6 mm 3 mps 739 mmHg 86%
    18:00 +21°C° 0 mm 3 mps 739 mmHg 87%
    19:00 +20°C° 0 mm 4 mps 739 mmHg 87%
    20:00 +20°C° 0 mm 4 mps 739 mmHg 88%
    21:00 +19°C° 0 mm 4 mps 739 mmHg 87%
    22:00 +19°C° 0 mm 5 mps 739 mmHg 87%
    23:00 +19°C° 0 mm 5 mps 739 mmHg 87%

    29 May, Wednesday

    Time Temperature Precipitation Wind Pressure Humidity
    00:00 +19°C° 0 mm 5 mps 739 mmHg 88%
    01:00 +19°C° 0 mm 5 mps 738 mmHg 89%
    02:00 +19°C° 0 mm 5 mps 738 mmHg 90%
    03:00 +17°C° 0 mm 5 mps 738 mmHg 89%
    04:00 +17°C° 0 mm 5 mps 738 mmHg 89%
    05:00 +17°C° 0 mm 5 mps 738 mmHg 88%
    06:00 +19°C° 0 mm 5 mps 738 mmHg 83%
    07:00 +20°C° 0 mm 6 mps 738 mmHg 79%
    08:00 +21°C° 0 mm 7 mps 738 mmHg 74%
    09:00 +22°C° 0 mm 7 mps 738 mmHg 73%
    10:00 +23°C° 0 mm 7 mps 738 mmHg 71%
    11:00 +24°C° 0 mm 7 mps 738 mmHg 70%
    12:00 +24°C° 0.2 mm 7 mps 738 mmHg 70%
    13:00 +26°C° 0.2 mm 7 mps 737 mmHg 71%
    14:00 +26°C° 0.2 mm 7 mps 737 mmHg 72%
    15:00 +24°C° 1.3 mm 7 mps 737 mmHg 75%
    16:00 +23°C° 1.3 mm 6 mps 737 mmHg 79%
    17:00 +22°C° 1.3 mm 6 mps 737 mmHg 83%
    18:00 +21°C° 0.5 mm 5 mps 737 mmHg 86%
    19:00 +20°C° 0.5 mm 4 mps 737 mmHg 88%
    20:00 +19°C° 0.5 mm 3 mps 737 mmHg 91%
    21:00 +19°C° 0.3 mm 3 mps 737 mmHg 93%
    22:00 +18°C° 0.3 mm 3 mps 737 mmHg 94%
    23:00 +18°C° 0.3 mm 3 mps 737 mmHg 95%
    Show more